IRIDIUM 33 DEB, 34146

Orbit data source: Space-Track

IRIDIUM 33 DEB, 34146 is space debris in LEO originally from a launch on Sun, 14 Sep 1997 UTC launched from the Tyuratam Missile And Space Complex (TTMTR). The debris from Iridium 33, an American commercial communications satellite, has been tracked extensively since its accidental collision with the defunct Russian satellite Cosmos 2251 in 2009. This event, occurring at high speed in low Earth orbit (LEO), generated thousands of pieces of space debris, significantly increasing the risk of further collisions. The Iridium 33 debris cloud has impacted space traffic management and orbital debris mitigation strategies, making it a subject of ongoing study in space situational awareness.

Loading next visibility...
Identifier
34146, 1997-051DZ
Orbit
LEO
Country
Flag of USUS
Related business
Manufacturer
Unknown
Mission
Spacecraft
Bus & Motor
Unknown
Mass
Unknown
Launch date (UTC)
1997-09-14 (28 years ago)
Launch vehicle
Unknown
Launch site
Tyuratam Missile And Space Complex (TTMTR)
Object type
Payload
Rocket body
Debris
Shape & HBR
Unknown shape, 0.1 m
Radar Cross Section
Small (<0.1 m²)

Expand to show TLE details & history
Last TLE update: 10 hours ago

TLE from 10 hours ago
0 IRIDIUM 33 DEB
1 34146U 97051DZ  26037.82200531  .00004950  00000-0  12785-2 0  9992
2 34146  86.2859 325.0275 0029144  41.6741  12.3675 14.49550532889192
Epoch: 2026-02-06T19:43Z
TLE epoch observation values (Epoch: 2026-02-06T19:43:41.258Z)
Latitude
54.04728°
Longitude
-102.74147°
Altitude
715.873 km
Speed
7.513 km/s
True Right ascension
22h 00m 32s
True Declination
53° 52' 58"
Sunlit
Object was in daylight at epoch
Visualization orbit readout
Latitude
Unknown
Longitude
Unknown
Altitude
Unknown
Speed
Unknown
Apparent Right ascension
Unknown
Apparent Declination
Unknown
Sunlit
N/A
Visualization observer readout
Local Sidereal Time
08:18:06
Azimuth
Unknown
Elevation
Unknown
Doppler factor
Unknown
Orbital elements
Apogee altitude
744.761 km
Perigee altitude
703.363 km
Semi-major axis
7,102.199 km
Eccentricity
0.00291
Inclination
86.2859°
RAAN
325.0275°
Arg. of periapsis
41.6741°
True anomaly
12.43928°
Mean anomaly
12.3675°
Eccentric anomaly
12.40337°
Mean motion
3.62622 °/min
Orbital period
99.28 mins
BSTAR
0.0012785
Loading maneuver chart data...
Computing Atmospheric mass density...

Documentation

Showing up to 5 results
|